TimeCDT,TemperatureF,Dew PointF,Humidity,Sea Level PressureIn,VisibilityMPH,Wind Direction,Wind SpeedMPH,Gust SpeedMPH,PrecipitationIn,Events,Conditions,WindDirDegrees,DateUTC
12:15 AM,61.2,52.9,74,30.15,10.0,ENE,3.5,-,N/A,,Clear,60,2012-09-01 05:15:00
12:35 AM,61.3,52.5,73,30.16,10.0,ENE,6.9,-,N/A,,Clear,60,2012-09-01 05:35:00
12:55 AM,61.2,52.3,73,30.16,10.0,NE,4.6,-,N/A,,Clear,50,2012-09-01 05:55:00
1:15 AM,60.1,52.2,75,30.16,10.0,ENE,3.5,-,N/A,,Clear,70,2012-09-01 06:15:00
1:35 AM,59.4,52.2,77,30.16,10.0,ENE,4.6,-,N/A,,Clear,60,2012-09-01 06:35:00
1:55 AM,58.1,51.8,80,30.17,10.0,NE,3.5,-,N/A,,Clear,40,2012-09-01 06:55:00
2:15 AM,56.1,51.3,84,30.17,10.0,NNE,4.6,-,N/A,,Clear,30,2012-09-01 07:15:00
2:35 AM,57.4,51.6,81,30.18,10.0,Calm,Calm,-,N/A,,Clear,0,2012-09-01 07:35:00
2:55 AM,54.9,50.9,86,30.18,10.0,Calm,Calm,-,N/A,,Clear,0,2012-09-01 07:55:00
3:15 AM,55.6,51.3,85,30.18,10.0,Calm,Calm,-,N/A,,Clear,0,2012-09-01 08:15:00
3:35 AM,54.7,51.3,88,30.18,10.0,Calm,Calm,-,N/A,,Clear,0,2012-09-01 08:35:00
4:15 AM,55.0,51.8,89,30.18,10.0,Calm,Calm,-,N/A,,Clear,0,2012-09-01 09:15:00
4:35 AM,53.2,50.4,90,30.18,10.0,NNE,4.6,-,N/A,,Clear,20,2012-09-01 09:35:00
4:55 AM,53.8,51.4,92,30.18,10.0,NE,5.8,-,N/A,,Clear,50,2012-09-01 09:55:00
5:15 AM,54.5,51.8,91,30.18,10.0,NNE,5.8,-,N/A,,Clear,30,2012-09-01 10:15:00
5:35 AM,52.3,50.2,92,30.18,10.0,NNE,3.5,-,N/A,,Clear,20,2012-09-01 10:35:00
5:55 AM,53.6,51.1,91,30.18,10.0,NE,3.5,-,N/A,,Clear,50,2012-09-01 10:55:00
6:35 AM,52.9,50.7,92,30.18,10.0,ENE,5.8,-,N/A,,Clear,60,2012-09-01 11:35:00
6:55 AM,52.9,50.9,93,30.19,10.0,ENE,3.5,-,N/A,,Clear,60,2012-09-01 11:55:00
7:15 AM,54.1,51.6,91,30.19,10.0,NE,3.5,-,N/A,,Clear,40,2012-09-01 12:15:00
7:55 AM,59.7,53.8,81,30.19,10.0,NE,5.8,-,N/A,,Clear,50,2012-09-01 12:55:00
8:15 AM,61.9,53.6,74,30.19,10.0,ENE,5.8,-,N/A,,Clear,60,2012-09-01 13:15:00
8:35 AM,63.9,53.6,69,30.19,10.0,ENE,5.8,-,N/A,,Clear,60,2012-09-01 13:35:00
8:55 AM,65.5,53.2,65,30.19,10.0,ENE,6.9,-,N/A,,Clear,60,2012-09-01 13:55:00
9:15 AM,66.9,53.2,61,30.19,10.0,ENE,8.1,-,N/A,,Clear,60,2012-09-01 14:15:00
9:35 AM,68.2,51.4,55,30.19,10.0,ENE,9.2,-,N/A,,Clear,70,2012-09-01 14:35:00
9:55 AM,69.8,50.4,50,30.19,10.0,ENE,9.2,-,N/A,,Clear,70,2012-09-01 14:55:00
10:15 AM,70.9,49.5,47,30.19,10.0,East,10.4,-,N/A,,Clear,80,2012-09-01 15:15:00
10:35 AM,72.3,49.6,45,30.19,10.0,ENE,11.5,17.3,N/A,,Clear,60,2012-09-01 15:35:00
10:55 AM,73.4,49.3,42,30.18,10.0,East,13.8,21.9,N/A,,Clear,80,2012-09-01 15:55:00
11:15 AM,73.0,47.8,41,30.18,10.0,ENE,18.4,24.2,N/A,,Clear,60,2012-09-01 16:15:00
11:35 AM,74.5,48.2,39,30.18,10.0,ENE,18.4,24.2,N/A,,Clear,60,2012-09-01 16:35:00
12:15 PM,75.4,47.1,37,30.17,10.0,ENE,13.8,21.9,N/A,,Clear,70,2012-09-01 17:15:00
12:35 PM,77.0,47.8,36,30.17,10.0,East,15.0,21.9,N/A,,Clear,100,2012-09-01 17:35:00
1:15 PM,77.0,48.0,36,30.16,5.0,East,11.5,21.9,N/A,,Haze,80,2012-09-01 18:15:00
1:35 PM,77.4,47.8,35,30.15,5.0,NE,13.8,20.7,N/A,,Haze,50,2012-09-01 18:35:00
2:15 PM,78.1,47.3,34,30.14,10.0,East,13.8,18.4,N/A,,Clear,90,2012-09-01 19:15:00
2:35 PM,78.1,49.5,37,30.13,10.0,East,12.7,17.3,N/A,,Clear,100,2012-09-01 19:35:00
2:55 PM,78.8,49.6,36,30.13,10.0,East,12.7,16.1,N/A,,Clear,90,2012-09-01 19:55:00
3:15 PM,78.3,50.0,37,30.12,10.0,East,13.8,19.6,N/A,,Clear,80,2012-09-01 20:15:00
3:35 PM,79.0,51.6,38,30.11,10.0,ENE,15.0,19.6,N/A,,Clear,70,2012-09-01 20:35:00
3:55 PM,78.8,51.3,38,30.11,10.0,East,9.2,19.6,N/A,,Clear,100,2012-09-01 20:55:00
4:15 PM,78.6,51.1,38,30.10,10.0,East,13.8,19.6,N/A,,Clear,90,2012-09-01 21:15:00
4:35 PM,77.4,50.7,39,30.10,10.0,East,15.0,-,N/A,,Clear,90,2012-09-01 21:35:00
4:55 PM,77.2,51.1,40,30.10,10.0,East,15.0,19.6,N/A,,Clear,100,2012-09-01 21:55:00
5:15 PM,76.8,51.1,40,30.10,10.0,ENE,11.5,18.4,N/A,,Clear,60,2012-09-01 22:15:00
5:35 PM,76.3,50.0,40,30.10,10.0,ENE,13.8,18.4,N/A,,Clear,70,2012-09-01 22:35:00
5:55 PM,75.4,49.5,40,30.10,10.0,East,15.0,-,N/A,,Clear,80,2012-09-01 22:55:00
6:15 PM,74.7,49.6,41,30.10,10.0,East,10.4,-,N/A,,Clear,90,2012-09-01 23:15:00
6:35 PM,73.4,50.0,44,30.10,10.0,East,10.4,-,N/A,,Clear,100,2012-09-01 23:35:00
6:55 PM,72.1,50.0,46,30.10,10.0,East,8.1,-,N/A,,Clear,90,2012-09-01 23:55:00
7:15 PM,70.5,50.2,48,30.09,10.0,East,6.9,-,N/A,,Clear,90,2012-09-02 00:15:00
7:35 PM,68.9,49.5,50,30.09,10.0,East,6.9,-,N/A,,Clear,80,2012-09-02 00:35:00
7:55 PM,67.1,49.5,53,30.10,10.0,ENE,5.8,-,N/A,,Clear,60,2012-09-02 00:55:00
8:15 PM,64.9,49.3,57,30.10,10.0,ENE,3.5,-,N/A,,Clear,70,2012-09-02 01:15:00
8:35 PM,63.1,49.5,61,30.10,10.0,NE,4.6,-,N/A,,Clear,40,2012-09-02 01:35:00
8:55 PM,61.2,49.6,66,30.10,10.0,NNE,5.8,-,N/A,,Clear,30,2012-09-02 01:55:00
9:15 PM,59.0,49.3,70,30.10,10.0,ENE,3.5,-,N/A,,Clear,70,2012-09-02 02:15:00
9:35 PM,58.1,49.3,72,30.10,10.0,Calm,Calm,-,N/A,,Clear,0,2012-09-02 02:35:00
9:55 PM,56.3,48.6,75,30.10,10.0,NNE,3.5,-,N/A,,Clear,20,2012-09-02 02:55:00
10:15 PM,54.9,48.2,78,30.10,10.0,NNE,3.5,-,N/A,,Clear,30,2012-09-02 03:15:00
10:35 PM,55.2,48.7,79,30.10,10.0,NNE,3.5,-,N/A,,Clear,30,2012-09-02 03:35:00
10:55 PM,54.5,48.4,80,30.09,10.0,NE,4.6,-,N/A,,Clear,40,2012-09-02 03:55:00
11:15 PM,54.0,47.7,79,30.09,10.0,Calm,Calm,-,N/A,,Clear,0,2012-09-02 04:15:00
11:35 PM,55.2,48.4,78,30.09,10.0,Calm,Calm,-,N/A,,Clear,0,2012-09-02 04:35:00
11:55 PM,53.1,47.7,82,30.09,10.0,Calm,Calm,-,N/A,,Clear,0,2012-09-02 04:55:00